Theta_e
291 292 291 291 291 290 289 288 288 286 287 286 283 284 288 289 284 282 288 290 287 289 292 294 295 296 296 296 297 297 297 297 295 294 293 293 292 291 290 288 287 286 285 285 284 284 284 283 283 282 282 282 281 280 279 278 277 277 276 276 275 275 275 275 275 275 275 274 274 273 272 271 270 270 269 269 268 267 267 267 267 267 267 267 267 267 268
289 289 290 291 290 289 288 288 288 289 288 287 287 286 288 288 287 289 289 290 289 292 293 295 296 297 297 297 298 297 297 296 296 296 296 296 296 294 291 289 287 287 286 286 285 284 283 283 282 282 282 281 280 279 278 277 277 276 276 275 274 274 274 275 275 274 274 273 272 271 270 269 269 268 267 267 266 266 265 266 266 266 266 266 267 267 267
285 288 289 290 289 287 285 287 288 287 287 288 288 287 288 288 288 289 289 288 287 293 295 295 297 297 297 296 295 295 296 296 296 296 296 296 297 296 293 291 288 287 286 286 285 284 283 283 282 282 281 281 280 279 277 276 276 275 275 274 274 274 274 274 274 273 272 271 271 269 269 268 267 266 266 265 265 265 265 265 265 266 266 266 267 267 267
282 286 287 287 288 287 285 284 285 287 287 286 287 286 289 287 286 287 287 285 286 292 295 295 295 295 295 294 294 295 296 296 296 296 296 296 296 297 296 292 291 288 286 285 284 284 283 283 282 282 281 280 279 278 277 276 275 275 274 274 273 274 274 273 272 272 271 270 269 268 267 266 265 265 264 264 264 264 264 264 265 266 266 266 267 267 267
280 285 286 286 286 284 281 282 285 288 288 289 290 291 291 290 290 287 284 285 291 293 295 294 294 294 294 294 295 295 296 297 297 296 296 296 297 297 297 297 292 289 287 286 285 284 284 283 282 282 281 279 278 277 276 276 274 273 273 273 273 273 273 272 271 271 270 268 267 266 266 265 264 263 263 263 263 263 264 265 265 265 266 266 266 267 267
280 284 285 285 281 275 276 288 291 291 288 288 287 288 289 291 291 289 292 292 294 295 295 294 294 294 295 295 297 298 297 296 296 297 297 297 297 298 298 298 293 290 288 287 286 285 284 283 283 282 281 279 279 277 275 274 273 273 272 272 272 272 271 271 270 270 268 267 267 266 265 264 264 263 263 263 264 264 264 265 265 265 265 265 266 266 266
280 283 283 279 274 276 287 292 293 293 292 291 290 290 291 292 293 293 292 293 293 295 296 296 296 296 297 297 297 297 297 297 296 296 296 297 298 298 298 296 292 290 288 286 285 284 283 282 281 280 279 278 276 275 274 272 272 272 272 272 271 271 270 270 269 268 267 266 266 265 264 263 263 262 262 263 263 264 265 265 265 265 265 265 265 265 265
283 280 280 273 274 285 289 292 292 294 293 292 290 288 290 291 292 292 291 293 294 294 295 295 296 295 295 296 296 297 297 297 296 296 297 298 298 298 297 295 293 288 286 285 284 283 282 281 279 279 278 276 274 273 273 272 271 271 271 271 271 271 269 269 268 268 266 266 265 264 264 263 262 262 263 263 263 264 264 264 265 265 265 265 265 264 265
278 279 279 278 286 283 285 288 289 290 288 289 288 283 287 292 293 293 292 292 293 293 294 294 295 295 294 292 294 297 296 294 296 297 297 298 297 297 296 294 292 289 287 285 284 282 281 279 277 277 276 274 273 271 271 271 271 271 271 270 270 270 269 268 267 267 266 265 264 263 263 262 262 262 262 262 263 264 263 264 264 264 264 264 265 265 264
285 279 277 278 277 275 281 289 293 295 295 294 294 289 286 294 294 295 293 292 293 293 293 293 294 294 290 288 291 295 295 296 296 296 296 295 294 293 291 288 287 287 286 284 283 281 278 277 276 275 274 273 271 271 270 270 270 270 270 270 270 269 268 268 267 266 266 265 263 263 262 261 261 262 262 263 263 263 263 263 263 264 264 264 264 265 264
283 280 277 276 275 278 287 288 293 295 296 295 290 287 282 291 293 294 294 292 293 293 293 293 293 290 286 288 293 295 294 294 294 295 294 293 291 288 288 287 285 284 283 282 280 279 277 275 275 274 273 272 271 270 269 269 269 269 269 270 269 268 268 267 266 265 264 263 263 262 261 261 261 260 261 262 263 263 263 263 263 264 264 264 264 264 264
281 280 278 276 281 280 288 291 292 294 295 296 290 278 278 291 292 294 293 292 293 293 293 293 291 288 286 290 293 294 292 293 293 293 292 288 285 284 284 284 284 282 281 279 277 277 276 275 274 273 273 272 271 270 269 270 269 269 269 270 269 268 267 265 264 263 262 261 261 260 260 260 261 261 262 262 262 262 262 263 263 264 263 263 263 263 264
281 281 279 281 282 288 292 292 295 294 294 291 281 276 285 293 294 295 295 294 294 294 293 293 289 291 293 293 296 287 284 285 285 283 284 286 285 283 282 282 281 279 279 279 277 276 276 274 272 272 272 271 270 270 269 269 269 269 269 268 267 266 265 263 262 262 261 260 260 260 260 260 261 261 262 262 261 261 261 262 262 262 262 262 263 264 265
279 280 279 278 283 289 293 294 294 292 290 280 279 289 295 295 294 295 296 295 295 294 293 293 293 294 295 294 295 288 284 287 285 283 282 281 281 281 282 280 279 278 277 277 276 275 274 272 272 272 271 271 270 269 269 269 270 269 267 266 265 264 263 262 261 260 260 260 259 259 259 260 260 261 262 261 261 261 262 262 261 261 261 262 263 265 266
283 281 279 278 274 287 295 293 291 291 286 286 294 295 295 295 295 295 295 295 294 294 293 293 294 294 294 294 294 292 289 286 283 281 280 280 280 278 278 278 278 277 276 275 275 274 272 271 271 272 272 270 269 269 269 269 268 266 265 264 263 262 261 260 259 259 259 259 259 259 259 260 259 260 261 260 260 260 260 260 261 261 262 263 264 264 265
280 279 277 277 286 290 295 293 287 289 292 295 296 295 294 296 296 295 295 295 295 295 294 294 294 294 294 295 294 292 289 286 284 282 282 281 280 278 278 278 277 276 275 274 272 270 270 270 270 272 271 269 268 268 268 266 265 264 263 262 262 260 259 259 259 258 258 259 259 260 259 260 260 260 260 260 260 261 261 261 262 262 263 264 264 264 265
286 283 286 291 293 294 295 295 295 295 296 297 296 296 296 295 296 296 296 295 296 295 294 294 294 293 293 293 294 291 290 287 283 281 281 280 279 277 276 276 276 275 274 272 270 269 269 269 270 271 271 269 268 268 266 264 263 262 262 261 260 259 259 258 258 258 258 259 259 259 259 259 260 260 259 260 261 261 261 261 262 262 263 263 263 264 265
293 294 294 296 295 295 294 297 297 296 296 297 296 295 295 296 297 297 296 296 296 295 294 292 292 292 293 293 293 292 291 289 284 282 280 278 277 276 276 275 275 274 273 271 269 267 267 268 269 270 270 270 268 266 264 263 263 262 260 259 259 258 258 258 258 258 258 258 258 258 259 260 259 261 260 260 261 261 262 262 262 262 262 263 264 265 265
288 284 294 293 294 295 295 296 297 297 296 296 296 295 295 296 297 296 296 296 296 295 293 291 292 293 293 292 293 292 291 288 284 281 280 278 276 275 274 275 273 272 270 268 267 266 266 267 268 269 269 270 267 264 263 263 262 260 259 259 258 258 258 257 257 258 259 259 259 258 258 260 260 260 261 261 261 261 262 262 262 262 263 264 265 265 264
285 286 292 294 296 297 297 297 295 294 295 296 296 296 296 296 297 296 297 296 294 294 292 292 292 293 293 292 291 291 289 287 285 281 279 277 275 275 275 274 272 271 269 268 267 266 265 266 267 267 266 265 264 263 262 262 260 260 259 259 258 258 257 258 257 258 259 258 259 260 259 259 260 261 261 260 261 261 262 262 262 262 264 265 265 265 264
288 290 292 293 294 294 295 296 297 296 296 296 296 296 296 295 295 295 295 295 295 295 294 295 293 291 291 292 291 291 290 287 285 281 278 276 274 274 273 272 270 269 269 268 267 266 266 265 265 265 263 262 262 262 261 260 259 259 259 259 258 257 258 258 257 257 258 257 258 259 258 258 259 260 260 260 261 261 263 264 264 265 265 266 266 266 266
284 284 287 292 286 286 292 295 297 296 298 297 295 296 294 295 294 294 294 294 295 294 294 294 293 291 291 291 291 289 289 289 286 281 278 276 274 273 273 271 270 270 269 268 267 266 265 264 264 263 261 261 261 261 260 259 260 259 258 257 257 258 258 258 257 257 257 257 257 257 258 258 259 259 260 262 262 262 263 266 268 269 269 267 267 267 267
284 290 293 293 292 292 293 294 296 296 296 295 293 294 294 295 295 295 295 293 293 293 294 294 292 291 291 292 292 290 289 288 286 282 278 275 273 272 271 269 269 269 268 267 266 265 264 263 262 261 260 260 260 259 259 260 259 258 258 258 258 258 257 257 257 257 258 258 257 258 258 258 258 259 260 261 264 266 267 267 267 268 269 269 270 270 268
292 294 294 292 290 289 292 294 295 295 296 296 295 295 295 295 294 293 293 292 292 291 292 292 292 291 291 291 291 289 289 288 285 280 278 276 274 272 270 269 269 268 267 266 265 264 263 262 261 260 259 259 258 258 259 259 259 259 259 259 258 258 258 258 257 257 258 258 257 258 258 258 258 259 259 260 261 265 266 265 267 268 268 269 269 269 270
290 293 292 292 293 293 295 295 295 295 295 295 295 295 295 296 295 296 294 294 293 292 291 292 293 293 291 291 290 289 289 288 284 280 277 274 273 271 269 269 268 267 267 266 266 264 262 261 260 260 259 258 258 258 258 258 259 259 259 259 258 258 258 257 257 256 257 257 257 257 257 257 257 258 258 258 259 260 262 265 266 267 267 268 269 269 269
290 289 289 289 289 289 290 291 291 292 293 294 294 294 295 293 295 294 294 294 294 294 293 293 293 293 293 290 289 288 287 286 282 278 275 273 272 270 268 268 268 268 267 266 264 263 261 260 260 259 258 257 258 258 258 258 259 259 259 258 257 257 257 257 257 257 257 257 257 257 257 257 257 257 257 257 256 256 257 258 260 263 265 266 267 267 268
287 287 286 284 284 285 286 285 285 288 289 290 290 290 291 292 291 292 293 293 292 293 292 292 291 291 290 289 287 287 286 285 280 276 274 273 271 269 269 269 268 267 266 265 263 262 261 260 259 258 258 257 257 257 257 258 258 258 258 257 257 257 257 258 257 257 257 257 256 256 256 256 256 256 256 256 256 256 256 255 256 256 257 259 262 265 265
286 287 286 282 281 283 285 288 289 289 290 290 290 290 291 291 291 290 289 290 290 290 291 290 289 289 288 288 285 284 283 280 277 275 273 273 272 272 271 270 267 266 265 263 262 260 260 259 259 258 257 257 257 257 256 257 257 257 256 257 257 257 256 256 256 257 256 255 256 256 256 255 256 256 256 256 255 255 255 255 255 255 256 258 257 260 265
275 273 275 277 278 280 283 285 286 287 288 289 290 290 290 288 288 289 289 290 291 291 291 291 291 290 290 290 288 285 283 279 277 276 274 274 273 272 270 268 266 264 263 262 261 260 259 259 258 257 256 256 256 256 256 256 256 256 257 257 257 257 256 256 255 255 254 254 255 256 256 255 255 255 255 255 255 255 255 255 254 255 256 256 257 258 260
269 270 270 273 276 278 280 281 282 283 283 285 286 286 287 287 287 287 288 289 290 289 291 291 291 290 291 289 287 285 282 280 278 278 276 274 272 269 267 266 265 263 262 260 259 259 259 259 258 256 255 255 255 255 256 256 256 257 257 257 257 256 255 254 254 253 254 254 255 255 254 254 254 254 254 254 254 254 254 254 255 255 254 255 256 255 256
265 268 269 272 276 276 273 273 275 276 278 280 282 283 285 287 287 287 288 289 289 289 290 290 289 289 289 288 287 285 283 282 280 277 274 271 269 267 266 264 262 260 260 259 259 259 259 259 257 256 255 255 255 255 256 256 256 256 256 256 256 257 257 257 256 254 254 253 253 253 253 253 253 253 253 253 253 253 253 253 253 253 254 254 254 255 255
263 265 268 271 270 267 267 269 270 271 272 274 275 275 278 280 282 283 285 286 286 287 288 288 287 288 288 288 286 284 281 278 274 271 270 267 267 266 265 265 265 264 262 261 259 259 259 258 256 255 254 254 255 255 256 256 256 255 255 257 256 256 257 258 255 254 252 252 252 252 252 252 252 252 252 252 252 252 252 252 252 253 253 253 253 253 254
260 262 265 265 263 262 263 265 266 266 268 269 271 273 275 277 278 280 283 285 286 287 287 287 287 288 287 286 282 278 275 272 270 269 267 266 266 265 265 266 266 265 264 262 260 260 258 257 255 254 254 254 255 255 255 255 256 256 257 258 257 257 257 257 255 253 251 251 251 251 251 252 251 251 252 251 251 252 252 251 252 252 252 252 252 252 253
259 260 261 261 261 260 260 261 263 264 265 267 268 270 272 274 276 278 280 283 285 285 286 286 287 286 284 279 276 274 271 269 268 267 266 266 265 265 265 266 266 264 262 260 261 261 259 256 254 254 254 254 255 255 255 256 257 257 258 258 257 256 255 254 253 251 251 251 251 250 251 250 251 251 251 251 251 251 251 251 251 252 252 251 252 252 254
260 260 261 260 260 261 261 260 260 261 262 262 264 266 268 270 273 275 278 280 282 284 285 286 285 283 279 276 273 271 270 270 271 268 265 265 264 264 265 264 262 261 260 260 260 259 256 254 254 253 254 254 254 255 255 256 257 257 256 256 254 254 253 252 251 251 251 250 249 249 250 250 250 251 250 250 250 250 250 250 251 251 251 250 251 251 251
259 258 259 259 259 259 259 259 259 260 260 261 262 263 265 267 269 272 274 277 280 281 283 284 284 280 277 274 272 271 270 271 270 267 265 263 263 264 263 261 260 259 258 257 257 255 254 254 255 255 254 254 254 254 255 255 255 255 254 253 252 251 251 251 250 250 250 249 250 250 250 250 249 249 249 249 249 249 249 249 250 250 250 250 250 250 250
259 258 258 258 258 258 258 258 258 259 259 260 261 262 263 265 267 270 274 277 280 282 282 280 278 276 275 274 273 271 270 270 268 266 265 264 264 263 261 260 259 258 255 252 252 253 254 253 255 255 254 253 253 253 253 255 253 253 252 252 251 251 250 249 249 249 249 249 249 249 248 248 248 248 248 248 249 249 249 249 250 249 250 249 249 249 249
258 258 257 257 257 257 257 258 259 259 259 259 261 263 264 266 270 273 276 278 278 276 274 274 275 273 271 268 267 266 266 265 264 263 262 262 262 260 259 258 258 256 253 252 252 253 253 254 255 254 253 253 252 252 252 253 252 252 251 251 251 250 249 249 249 248 248 248 248 248 248 248 248 248 248 248 247 248 249 249 249 249 249 249 249 248 249
257 258 258 257 257 257 257 258 259 259 260 260 262 265 269 270 270 271 273 274 271 270 269 268 268 266 265 264 263 262 261 261 261 261 261 260 260 259 258 259 259 258 256 254 253 253 253 254 253 253 253 252 252 252 252 252 253 252 252 251 250 250 249 249 249 248 247 247 247 247 247 248 248 248 248 248 248 247 247 248 248 249 248 249 248 248 248
256 256 257 257 256 257 257 257 258 260 262 265 265 264 264 265 266 268 269 267 267 267 266 266 266 265 263 261 259 259 260 260 260 259 259 259 259 259 257 254 254 256 255 255 253 253 254 255 254 253 253 252 252 251 251 251 252 252 252 251 251 251 250 249 248 248 247 247 247 247 247 247 247 248 248 247 247 247 247 247 247 248 248 248 248 248 248
256 256 257 257 256 257 257 257 258 260 261 262 262 262 262 263 265 266 266 265 265 265 265 265 264 262 261 260 260 259 259 260 260 259 260 259 258 257 254 251 252 253 253 253 253 253 253 254 254 253 253 252 252 252 251 251 251 252 252 251 251 250 250 249 249 248 248 248 248 248 248 247 247 247 247 247 247 247 247 248 248 248 249 249 249 249 248
256 257 256 256 256 256 256 257 258 259 260 260 261 261 261 262 263 264 264 264 264 264 263 263 263 261 259 259 259 259 259 259 260 260 260 260 259 256 251 250 252 253 254 254 253 254 253 253 253 254 253 253 252 252 252 251 252 252 252 252 251 250 249 249 248 248 248 248 248 248 247 247 248 247 247 247 247 248 249 249 250 250 250 249 249 248 248
256 256 256 255 256 256 255 256 257 258 259 259 259 259 260 262 262 263 263 263 262 261 260 260 259 258 258 258 258 258 258 259 259 259 256 255 258 257 252 251 253 253 255 253 253 253 253 254 253 253 253 252 251 252 252 252 252 252 252 251 250 250 250 249 248 248 247 247 247 246 247 246 247 247 247 248 248 249 249 249 250 250 249 250 249 248 248
256 256 256 255 254 255 255 256 257 258 257 258 259 259 259 260 261 261 261 260 259 258 257 256 256 256 257 258 258 257 258 258 256 256 254 253 252 252 253 253 253 254 255 253 253 253 253 254 254 253 253 253 252 252 252 252 252 252 251 250 250 250 250 248 247 247 247 247 247 247 247 246 247 247 247 248 249 249 248 248 248 248 249 249 248 248 248
256 256 255 255 255 255 255 256 256 256 258 258 258 258 258 258 259 260 260 259 258 257 257 256 256 256 257 258 257 257 258 258 258 258 254 252 251 250 252 254 253 253 253 254 253 253 254 253 253 253 253 253 252 253 253 253 252 251 251 251 250 250 249 248 248 247 247 247 247 247 247 247 247 248 247 247 247 247 248 248 248 248 248 247 248 248 248
256 256 256 257 255 254 255 256 257 258 257 257 257 257 257 257 258 258 259 258 257 257 257 257 257 257 257 258 258 259 257 256 256 256 257 256 253 252 253 254 253 254 254 255 253 253 253 253 253 253 253 253 253 252 252 252 252 252 251 251 250 249 249 248 248 247 247 247 247 247 247 247 247 247 247 247 247 246 246 245 246 247 247 247 247 247 247
255 255 255 255 255 255 256 256 257 256 256 256 254 255 256 256 257 257 257 257 257 257 258 258 258 258 259 259 257 256 255 254 253 253 252 252 253 253 253 254 254 255 254 253 253 252 252 251 252 253 253 253 253 252 252 251 251 251 250 250 250 250 249 249 248 247 247 247 246 245 245 245 245 245 244 244 245 245 245 245 246 246 246 246 246 246 246
254 254 255 255 255 255 256 256 255 255 254 254 255 255 255 255 255 255 256 256 257 256 257 257 258 258 259 258 259 259 258 255 252 251 253 253 253 253 253 253 253 254 254 254 252 252 253 253 253 253 253 253 251 252 251 251 250 250 250 249 250 250 249 249 247 247 247 246 245 246 246 246 245 245 245 245 245 245 245 245 245 246 246 246 246 247 246
255 254 255 256 255 255 255 255 255 255 255 255 256 256 256 255 255 255 255 256 256 256 256 256 255 255 255 256 256 256 256 256 255 252 253 254 253 253 253 253 254 254 253 252 251 251 252 253 253 252 252 252 252 251 251 250 250 249 250 250 250 249 249 248 247 247 247 246 246 246 246 246 245 245 244 244 245 245 244 244 244 245 246 246 246 245 246
255 255 255 255 255 255 254 254 254 255 255 256 255 256 256 256 254 254 255 255 255 255 255 255 255 254 254 254 254 254 254 253 253 254 253 253 253 253 253 253 253 254 253 252 251 251 252 252 252 251 251 251 251 251 250 250 250 250 250 249 248 248 247 246 246 245 245 245 245 245 245 245 245 244 244 244 244 244 244 244 245 245 245 245 245 246 247
254 254 255 255 255 255 255 255 255 256 256 256 256 256 256 255 255 255 255 255 255 254 254 254 254 254 254 254 254 253 253 253 253 254 253 253 253 253 254 253 253 253 252 251 251 251 251 250 250 250 250 250 250 250 250 250 250 249 249 249 248 247 247 246 246 246 245 245 245 245 245 245 244 244 245 245 244 244 244 244 244 245 245 245 246 246 246
255 255 256 255 255 255 255 255 256 256 256 256 256 256 256 255 255 255 256 257 256 255 255 254 253 254 254 254 254 253 254 254 254 253 254 253 253 253 253 254 252 252 252 252 251 251 251 250 250 250 251 250 250 250 250 250 249 249 249 248 248 248 248 247 247 246 246 245 245 245 245 245 245 245 244 244 244 244 244 244 245 245 245 246 246 245 245
Wind_Speed
20 18 26 25 24 19 12 12 12 14 16 19 23 27 22 14 12 19 23 20 17 17 23 29 26 18 16 19 20 17 17 10 5 9 11 12 12 13 13 12 12 12 13 14 15 15 15 15 17 17 15 14 13 12 12 13 13 13 12 12 12 11 10 9 9 9 8 7 6 6 5 4 4 4 4 4 4 4 5 5 5 6 6 7 8 9 9
16 20 22 24 23 19 19 17 16 16 18 23 22 22 17 20 26 24 22 21 23 21 26 26 20 15 15 17 16 20 21 19 15 13 14 17 16 15 14 14 14 15 15 13 14 14 15 18 18 17 16 16 16 16 15 14 13 12 12 12 12 11 10 9 8 8 8 6 6 5 5 5 4 4 4 4 4 4 5 5 5 5 6 7 8 9 9
16 20 23 24 23 21 21 19 16 17 24 23 17 19 25 25 18 23 22 21 22 22 26 20 16 19 22 20 22 25 26 25 21 18 19 21 22 16 13 12 14 14 14 13 13 16 18 19 20 18 17 17 16 15 14 14 13 12 11 11 10 10 9 9 8 8 7 7 6 6 5 5 4 4 4 4 4 4 5 5 5 6 6 7 8 8 9
14 17 23 26 23 21 16 11 17 26 27 21 21 24 21 17 20 22 17 17 18 22 22 19 21 25 23 23 24 24 22 21 14 13 17 20 21 19 11 14 14 12 13 15 17 18 18 18 19 17 17 16 16 16 15 14 12 12 10 10 10 9 9 9 8 8 7 7 7 6 6 5 5 4 4 4 4 4 4 5 5 4 6 7 7 8 7
15 21 18 17 14 11 11 15 26 30 25 22 25 26 22 22 22 18 15 20 17 19 18 20 23 22 18 19 21 24 25 20 14 17 20 19 19 18 19 18 12 14 15 17 18 17 15 16 18 19 18 16 18 16 15 13 12 12 11 10 9 9 9 9 9 8 7 7 7 6 6 5 4 4 4 4 4 4 5 4 4 5 6 6 7 7 8
11 16 16 12 11 15 18 23 26 20 25 31 31 25 29 27 15 17 15 17 19 22 21 26 21 19 21 22 22 24 21 17 16 20 19 20 21 22 20 16 12 14 11 11 12 15 16 17 16 16 17 18 15 13 12 12 12 11 12 10 9 9 9 8 8 8 7 7 7 6 6 5 5 4 4 4 4 4 3 4 4 5 5 7 7 7 8
12 13 7 9 17 17 21 15 10 23 30 30 30 32 25 19 18 19 22 25 27 26 22 25 22 21 22 18 23 28 24 16 15 19 21 21 21 21 20 12 10 11 10 8 9 10 12 13 14 14 13 12 12 11 12 12 10 12 10 11 9 9 9 8 8 8 8 7 6 6 5 5 5 4 4 3 4 4 3 3 4 4 5 6 7 8 9
8 6 8 11 17 5 1 8 16 20 19 21 24 25 24 19 17 21 24 27 25 25 31 28 23 21 16 17 23 27 20 13 14 18 19 21 19 18 13 11 11 10 12 13 14 13 10 11 11 13 14 12 12 11 10 11 11 10 11 10 10 9 9 9 9 8 8 7 6 6 5 5 5 4 4 3 3 3 3 3 3 4 5 6 7 8 9
13 11 15 22 3 4 6 7 13 16 18 22 23 20 15 15 14 21 25 24 23 31 29 27 22 18 11 13 22 26 9 12 14 18 19 18 15 12 9 7 9 9 11 10 9 9 12 12 12 13 12 12 12 12 11 10 11 11 11 10 10 10 9 9 8 8 8 7 7 6 6 5 4 4 3 3 3 2 2 3 3 4 5 6 6 8 9
14 16 13 10 10 16 14 18 20 18 18 18 13 12 12 8 19 27 23 25 26 26 26 23 21 11 8 16 19 22 8 16 14 13 10 9 9 7 4 1 2 4 6 7 9 12 12 12 11 12 13 14 13 13 12 12 12 12 11 11 10 10 9 9 8 8 7 7 6 6 5 5 4 3 3 2 3 2 2 2 4 4 5 6 7 7 9
11 14 12 14 14 16 10 23 23 25 22 12 6 4 11 8 26 28 26 26 23 25 24 23 17 8 12 17 19 15 10 9 9 10 11 9 6 5 6 7 7 7 9 11 11 11 14 14 13 13 14 15 13 12 12 12 12 13 11 11 11 11 10 9 8 7 6 6 6 6 5 4 4 3 3 3 2 1 1 2 4 5 5 6 7 8 9
13 14 14 15 7 12 12 15 18 25 20 5 4 14 14 19 35 28 27 25 25 25 24 20 14 12 16 17 19 12 8 8 10 10 10 9 7 6 5 6 8 9 11 13 13 14 15 16 14 16 15 14 17 14 12 12 12 12 12 11 10 9 9 9 8 7 6 6 5 5 5 4 3 3 2 2 1 0 1 2 3 4 5 6 8 9 10
22 23 16 14 10 3 8 17 21 9 13 12 14 22 13 23 25 21 22 23 23 21 19 15 14 17 19 18 19 4 6 4 5 4 2 5 6 8 9 8 10 11 11 14 16 16 12 12 12 13 12 14 13 11 12 12 12 11 11 10 10 10 9 8 8 7 6 5 5 4 4 3 3 2 2 1 1 1 1 2 3 5 6 7 8 10 10
15 17 16 19 16 13 13 15 16 11 11 12 23 19 23 21 18 16 15 17 18 17 17 15 16 17 19 16 15 11 12 12 9 8 7 7 4 3 5 8 10 10 10 10 10 10 11 14 13 15 18 21 12 9 10 11 10 10 11 11 10 9 9 8 7 6 6 5 4 4 3 3 3 3 2 1 0 1 1 2 4 5 6 7 8 10 11
14 11 14 11 14 7 23 24 12 13 17 21 16 20 18 19 18 17 17 16 16 15 13 15 17 17 17 15 15 16 14 12 12 11 11 11 11 10 11 10 8 11 12 13 13 13 11 12 12 13 18 19 18 14 9 10 10 10 10 10 10 10 9 9 7 7 6 6 5 4 3 3 3 2 2 2 1 1 1 3 3 6 8 8 9 11 11
14 17 15 13 17 17 23 23 19 18 28 22 24 21 20 15 15 14 15 15 15 16 16 16 17 17 17 17 15 12 11 11 7 7 7 6 6 7 6 9 14 14 11 11 11 11 12 12 14 16 20 19 19 17 11 9 10 10 10 10 10 10 9 8 8 6 6 5 5 4 3 3 3 3 1 1 2 2 2 2 3 6 7 8 10 11 10
13 12 14 16 13 14 13 23 23 20 26 25 25 23 20 17 15 14 14 15 15 16 18 18 16 14 15 17 15 13 15 12 10 10 10 11 10 10 12 12 13 12 14 18 15 13 11 10 15 13 15 21 19 18 10 10 11 12 11 11 10 10 9 9 8 7 6 5 5 4 3 3 3 2 1 1 2 3 2 2 3 5 6 9 9 9 10
16 21 16 10 12 18 19 20 23 27 27 22 19 20 19 17 16 13 13 13 15 14 12 12 12 14 16 16 14 13 11 9 9 8 9 8 8 8 9 9 12 12 14 16 15 16 12 13 12 15 16 17 22 13 12 10 11 11 12 11 10 10 9 8 8 8 8 6 4 3 2 2 2 2 2 2 3 2 2 2 4 5 7 8 7 9 10
16 16 8 21 20 20 19 18 21 23 19 17 14 17 18 19 19 17 14 16 15 13 5 11 13 14 15 15 14 12 10 10 11 14 14 12 13 15 14 14 15 15 18 15 18 18 18 12 12 13 17 10 12 13 13 12 11 11 11 12 11 10 9 9 8 7 8 6 5 3 2 2 2 2 2 2 3 2 0 2 4 6 7 7 8 9 10
14 18 13 14 15 19 17 16 15 15 17 20 18 17 18 20 20 20 21 18 16 11 10 11 14 17 16 14 13 12 11 12 11 12 14 13 10 9 11 13 16 18 17 19 19 18 15 14 12 15 16 13 10 10 11 11 10 11 11 10 11 10 10 8 7 7 6 7 6 4 3 3 3 3 2 3 3 1 1 2 4 6 7 8 9 9 10
11 13 16 17 19 22 21 15 5 9 14 15 18 19 18 16 17 19 18 16 18 16 17 16 16 16 16 17 16 14 11 11 11 13 14 16 15 13 15 15 22 22 18 17 20 18 15 12 13 13 13 11 11 13 12 11 13 12 10 10 9 10 8 7 7 6 6 6 4 4 4 3 2 2 2 3 3 2 4 4 5 6 7 8 8 8 8
15 15 15 7 9 12 15 17 18 13 11 13 12 12 12 14 18 18 19 19 17 17 17 18 18 16 16 17 16 13 14 15 14 11 14 16 17 14 12 12 15 13 19 24 19 19 14 14 13 14 13 12 11 10 12 12 10 13 12 10 9 8 6 7 7 7 6 5 5 4 4 3 2 2 4 5 5 3 3 6 9 11 10 7 9 9 9
16 11 15 8 11 12 11 15 17 13 11 10 12 13 12 13 15 17 16 17 17 17 16 13 15 16 17 19 16 13 12 15 13 14 16 17 18 16 15 15 15 18 18 17 19 21 16 15 14 13 13 13 12 11 12 12 11 11 13 10 7 6 6 5 7 7 6 6 5 4 4 4 2 1 2 3 3 8 9 8 9 10 10 11 13 14 11
23 18 14 8 9 13 17 14 11 9 8 12 14 14 15 16 14 9 8 10 13 13 13 13 9 11 14 16 16 17 17 15 10 13 16 21 23 20 16 18 18 18 18 20 22 22 16 15 14 12 13 12 12 13 12 11 10 11 10 10 9 7 7 7 8 6 6 6 5 5 4 3 2 2 3 2 2 7 6 4 9 9 7 11 13 14 14
16 13 15 14 16 18 14 15 15 13 12 13 14 16 18 18 16 16 16 15 14 17 19 20 20 17 15 16 17 17 17 15 11 12 14 15 16 20 19 18 23 27 21 21 15 15 15 15 15 13 14 13 14 15 11 11 12 12 12 10 10 8 7 8 7 7 6 5 4 5 4 3 3 3 4 4 3 2 6 8 3 2 6 13 17 16 16
17 15 14 15 14 17 16 18 19 17 18 17 18 15 16 16 18 18 19 18 19 18 19 19 20 19 15 14 13 14 13 14 15 14 13 16 16 18 20 27 30 31 22 18 22 18 18 17 16 15 15 14 14 13 11 11 10 11 15 16 11 8 8 9 8 7 6 6 5 5 4 3 3 4 4 3 2 2 6 9 10 7 8 15 18 20 19
21 19 19 22 23 24 22 21 21 21 23 22 23 23 23 23 23 21 21 19 18 17 17 17 16 15 12 10 13 14 16 13 7 10 14 19 22 27 28 26 29 26 25 26 21 16 19 17 16 15 14 14 13 13 12 12 12 10 9 8 7 7 8 7 7 7 6 6 6 6 5 4 4 5 4 3 1 0 1 3 4 6 8 9 14 17 14
20 18 14 16 16 16 18 18 18 17 17 17 18 19 19 17 17 17 19 19 17 15 15 15 16 16 16 13 11 13 11 11 15 15 15 19 22 23 23 19 21 24 26 25 17 18 21 17 15 16 14 14 16 14 12 12 12 11 10 9 9 8 7 7 7 7 6 6 6 6 5 5 4 5 4 3 1 1 1 2 4 5 5 5 5 9 15
13 14 14 13 14 14 16 16 17 18 18 17 17 16 15 17 17 17 19 20 20 17 16 16 15 16 16 17 13 15 14 14 16 17 20 21 20 15 11 15 24 26 25 20 15 17 16 16 16 17 15 12 12 12 13 12 12 11 10 9 9 8 7 6 7 7 7 6 6 6 6 6 5 5 4 3 2 2 1 2 3 3 4 6 7 7 9
16 15 15 16 16 17 17 15 14 17 18 19 20 19 17 18 19 19 22 22 20 21 20 19 18 17 16 16 15 15 16 17 20 20 18 13 6 10 13 16 20 18 18 16 18 18 17 16 16 17 17 14 14 13 12 11 9 9 9 9 7 8 7 8 8 8 8 7 8 9 6 6 5 5 4 3 2 2 1 1 2 2 2 3 4 3 6
18 18 16 15 13 13 13 15 14 15 16 18 18 19 19 18 18 19 19 20 19 19 19 18 18 19 18 18 15 15 16 17 16 12 9 9 13 15 19 30 26 19 19 22 18 20 20 17 14 15 15 18 17 15 14 11 11 10 9 8 7 12 17 17 11 8 7 7 7 6 5 5 5 4 4 3 3 2 2 1 1 1 1 1 2 3 4
17 17 16 9 8 14 17 14 14 15 16 17 19 21 20 19 20 22 21 20 20 20 21 22 22 22 20 18 16 14 12 8 5 6 8 11 15 20 32 30 33 34 33 27 14 10 14 18 19 13 14 13 14 11 11 11 10 10 9 10 10 10 12 16 8 8 7 7 6 6 5 6 5 4 4 3 3 2 1 1 0 0 1 2 2 2 4
15 19 21 19 20 20 20 18 14 19 19 20 18 17 18 20 21 21 22 21 20 20 20 21 21 20 17 14 9 8 8 8 8 9 11 14 18 23 33 20 17 17 19 20 25 24 23 22 17 14 14 14 12 11 10 10 11 10 10 10 10 10 10 10 10 8 6 6 5 5 5 4 5 4 3 3 2 2 1 1 0 0 1 1 2 3 4
8 8 13 15 12 14 19 24 23 20 19 19 20 20 20 20 20 21 22 22 21 21 20 20 19 17 13 9 10 10 10 11 11 14 17 17 18 18 21 13 9 14 17 21 21 18 14 15 15 16 15 14 13 11 10 9 8 8 9 10 10 11 9 9 9 7 7 6 6 5 5 5 5 4 4 3 2 1 1 1 0 0 0 1 1 2 6
11 15 15 18 17 16 17 19 22 23 21 22 24 22 21 21 21 22 23 23 22 21 19 18 16 14 9 9 10 12 13 18 19 17 14 12 12 17 20 17 18 19 19 17 14 14 10 13 13 17 18 15 11 9 9 10 9 10 12 10 9 8 8 7 7 6 7 7 6 6 5 5 4 4 4 3 2 2 1 1 0 0 0 1 2 3 4
12 13 14 14 14 16 18 19 19 22 22 23 24 24 24 24 24 23 24 23 21 20 21 19 15 11 10 11 12 13 15 12 7 9 10 11 16 19 18 22 24 26 23 19 13 12 12 13 16 17 13 11 10 9 9 10 9 9 10 9 8 7 7 7 7 6 6 6 6 5 5 6 5 5 3 3 2 1 1 1 0 0 0 1 2 4 4
10 14 15 16 16 17 19 18 17 19 21 22 23 24 25 27 26 24 22 21 21 18 14 10 8 9 11 10 7 2 2 6 9 11 14 17 17 17 18 20 24 26 26 22 12 11 12 13 15 16 12 9 10 10 11 13 9 9 8 8 8 8 8 7 7 6 5 4 6 6 6 6 4 4 3 2 2 2 1 1 0 0 0 1 2 2 4
14 14 16 16 19 21 21 18 18 20 24 29 28 25 25 25 23 21 20 20 18 13 9 7 6 4 3 5 6 6 7 8 12 14 17 19 18 20 19 20 18 16 13 13 14 13 11 16 18 11 9 9 10 10 12 10 9 8 7 7 7 7 7 7 7 6 6 5 5 5 5 5 5 4 3 2 2 2 1 1 0 0 0 1 1 1 2
17 13 12 15 17 18 20 19 17 18 20 24 24 21 16 16 20 20 20 17 8 3 0 2 5 7 6 8 8 9 10 12 15 18 17 16 18 19 13 13 13 18 18 17 18 14 16 15 10 10 9 10 11 12 15 13 14 7 7 7 7 6 6 6 7 6 6 6 6 5 5 4 3 4 3 3 3 2 2 1 1 0 0 0 1 1 2
17 17 17 17 16 16 17 19 18 17 17 17 17 19 18 16 16 15 13 7 5 3 1 4 6 5 7 9 14 12 11 14 15 12 14 17 21 19 17 12 10 12 16 18 14 13 16 17 12 10 10 10 11 12 11 10 8 7 7 7 7 6 5 6 7 7 6 6 6 5 4 4 4 3 3 3 2 2 2 2 1 0 0 0 0 1 1
18 19 18 17 18 18 17 20 22 20 19 19 17 15 15 14 14 11 7 5 4 3 2 2 5 6 9 11 12 11 13 14 18 21 22 20 19 18 17 12 8 11 12 12 14 16 15 11 10 11 10 11 10 10 11 11 8 7 7 7 6 7 6 6 6 6 7 6 5 5 4 4 4 4 3 2 2 2 2 1 1 1 0 0 0 1 1
19 19 19 18 18 18 19 19 20 20 18 16 17 15 15 14 12 8 6 4 4 5 6 6 7 10 11 12 13 13 14 15 17 16 16 17 18 16 13 8 11 10 14 17 18 17 12 10 9 8 11 10 10 13 12 9 7 7 7 7 6 6 6 6 6 5 4 4 5 4 4 3 4 3 3 2 2 1 2 1 1 0 0 0 0 1 2
19 20 19 18 18 20 19 19 19 18 18 15 13 14 14 13 9 8 5 6 6 7 8 10 13 13 13 14 16 14 12 15 15 15 13 13 11 12 13 14 10 13 20 16 13 11 10 10 10 8 10 11 12 17 13 8 7 7 6 6 6 6 6 6 6 5 5 5 5 4 4 4 3 3 3 3 2 2 1 2 1 1 0 1 1 2 3
20 17 17 18 19 18 18 17 17 16 14 13 13 13 12 10 9 8 6 6 7 7 7 9 10 12 13 14 13 11 11 12 11 10 12 18 17 11 8 7 13 17 17 11 11 10 10 8 8 12 13 16 19 17 9 7 7 6 6 7 7 6 7 6 6 6 5 5 4 4 4 3 3 3 3 3 2 2 1 1 1 1 1 1 2 2 3
18 17 19 19 20 18 15 14 15 15 12 11 11 10 10 9 9 8 7 7 8 8 8 9 9 10 9 8 5 6 7 8 9 12 12 11 12 7 5 8 13 13 12 15 11 9 9 9 13 16 16 19 16 14 8 7 7 7 7 7 7 6 6 6 6 5 4 4 4 4 4 4 3 3 3 2 2 1 2 1 1 1 0 1 2 3 3
19 17 17 20 18 16 15 15 13 12 10 8 8 8 10 9 8 8 9 8 8 8 8 9 9 8 7 10 12 13 13 10 9 8 4 1 10 14 15 12 9 10 18 18 9 9 8 16 20 19 19 17 16 10 6 6 6 7 6 6 6 6 6 6 5 5 5 5 4 4 4 4 3 3 3 2 2 1 1 1 1 1 2 2 3 4 5
17 16 16 16 17 16 16 13 11 10 9 8 8 8 9 9 9 7 8 10 11 11 10 10 11 11 8 6 5 10 9 9 10 9 10 12 14 16 15 15 15 20 18 11 9 9 11 13 14 18 18 15 13 7 7 7 6 6 6 5 5 5 5 5 5 5 4 4 4 4 3 3 3 2 2 2 2 2 2 1 1 1 2 2 3 3 3
16 15 15 19 20 18 14 11 9 9 9 8 8 7 8 9 9 9 9 10 11 11 11 11 8 8 8 10 9 9 8 8 13 9 7 11 11 14 13 12 11 13 17 14 14 12 16 17 19 18 15 13 8 6 7 6 6 6 5 5 5 5 5 5 4 4 4 4 5 4 4 3 3 3 2 3 2 2 2 2 2 2 2 2 3 2 2
16 18 17 15 13 14 13 10 8 8 7 8 8 6 7 8 8 8 8 10 11 9 10 10 10 8 9 9 9 6 7 8 4 8 10 12 13 13 13 14 16 16 11 10 12 11 14 17 17 14 12 10 6 6 6 6 5 5 5 5 4 4 4 4 4 4 4 4 4 3 3 3 3 3 3 2 1 2 1 2 3 3 3 2 2 3 3
13 12 10 9 9 9 9 8 7 6 7 7 6 6 6 5 6 6 5 5 6 7 9 8 7 6 6 7 7 8 8 11 13 13 13 11 11 12 12 11 11 11 11 10 11 11 12 16 14 11 9 5 6 6 5 6 5 5 5 5 4 4 3 4 4 4 3 3 3 3 3 3 2 2 2 1 1 1 2 2 3 4 5 4 3 3 2
11 10 9 8 8 8 9 8 7 7 6 7 7 6 6 6 6 6 5 6 6 8 7 7 7 7 7 7 8 8 11 11 12 13 12 11 10 11 10 10 10 10 10 9 9 10 9 7 7 6 7 6 5 5 5 5 5 5 4 4 4 4 4 4 4 4 3 3 2 3 3 3 3 3 2 1 2 2 3 3 4 3 3 3 3 3 3
12 10 8 8 8 8 7 7 8 8 7 7 6 6 6 6 5 6 7 7 7 7 6 7 7 6 6 7 8 9 10 13 11 10 10 11 11 10 10 11 11 11 9 9 9 8 7 7 6 6 6 5 5 5 6 6 5 4 4 4 3 3 3 4 3 3 3 4 3 3 3 4 3 3 2 2 2 2 3 4 4 3 3 2 2 2 3
Wind_Direction
240 241 251 252 254 244 232 220 208 214 210 215 218 228 237 223 230 241 243 249 254 255 257 259 262 264 259 269 269 264 269 272 169 210 228 231 228 225 217 217 217 216 212 205 201 195 193 184 186 184 179 174 166 164 159 159 159 158 154 153 155 159 168 173 175 170 167 170 173 172 177 182 196 204 218 236 243 253 256 261 267 270 278 282 283 285 287
261 259 256 259 262 264 263 259 260 251 235 226 219 235 233 224 238 244 254 257 260 263 257 255 263 273 275 274 278 282 281 274 264 257 262 264 248 219 212 211 213 213 213 205 196 190 187 189 186 183 180 176 173 168 165 162 160 156 153 155 156 162 169 172 164 163 163 161 165 164 170 183 188 200 217 231 239 247 254 260 269 275 278 281 282 284 289
254 253 256 259 260 262 265 265 258 247 245 244 234 243 245 244 252 253 253 258 265 258 257 269 283 280 276 278 277 277 279 276 275 276 270 269 272 256 219 213 209 210 207 202 191 190 193 190 187 183 180 175 169 165 161 160 157 156 153 150 156 163 166 162 159 158 162 164 164 169 171 178 186 199 220 225 239 247 252 257 263 270 271 276 280 284 289
252 247 248 249 254 257 260 262 251 248 246 244 240 240 237 241 250 251 256 257 246 250 258 265 266 267 270 272 273 272 268 269 279 271 268 270 273 276 251 215 215 200 201 199 197 197 195 189 183 180 175 171 166 168 162 160 154 149 148 147 153 160 158 156 159 161 162 160 165 171 171 183 188 197 214 228 237 245 251 258 264 265 270 271 280 289 290
244 246 244 253 259 272 263 240 239 240 248 253 253 254 256 247 246 258 250 243 251 259 261 267 263 262 264 264 266 268 270 274 277 273 272 273 275 277 273 262 206 201 201 201 199 196 187 183 184 185 172 163 172 166 160 156 138 147 147 148 150 156 156 159 161 162 160 164 169 173 179 178 183 197 212 227 234 238 243 252 258 257 268 281 284 293 295
246 251 252 251 251 235 229 229 233 237 244 242 244 246 246 248 239 248 258 267 261 260 261 261 256 264 263 263 268 269 272 285 287 277 274 276 278 278 273 263 221 205 201 201 197 188 185 186 183 172 168 168 164 150 138 131 140 144 144 147 152 154 155 161 162 162 165 165 173 173 173 177 188 203 208 221 232 241 241 244 248 263 268 275 282 291 298
241 245 247 235 228 230 235 243 229 235 237 245 251 253 258 264 258 259 259 256 257 259 262 260 267 264 266 275 275 271 274 278 271 272 274 272 272 273 277 269 217 206 195 186 178 179 181 168 158 152 154 149 127 124 135 139 141 142 146 147 153 156 158 162 162 165 166 170 172 170 172 179 191 201 207 220 232 234 230 237 248 266 276 281 288 289 292
247 225 203 237 241 244 283 184 226 240 251 254 257 260 251 248 251 255 254 254 260 265 264 269 268 270 281 281 274 271 273 258 245 254 262 267 268 273 277 264 248 199 183 188 186 185 149 138 150 153 154 137 134 139 138 140 142 143 145 149 153 156 160 166 168 169 168 170 170 169 171 180 187 199 203 216 229 238 240 249 260 268 276 283 288 289 289
232 219 217 230 274 345 176 210 227 218 219 227 226 240 236 239 247 250 251 254 257 259 264 268 273 276 284 276 274 274 233 201 219 240 249 257 270 276 272 238 228 198 188 182 169 140 149 154 145 154 137 133 132 134 143 145 143 144 146 151 158 162 164 166 170 168 170 168 166 168 172 178 182 195 200 218 229 226 243 265 278 278 281 285 288 294 295
210 233 232 238 221 236 216 217 234 239 238 242 251 239 252 195 247 244 246 251 252 259 262 263 265 277 296 272 270 276 162 202 215 236 252 265 264 263 249 121 146 165 171 151 146 150 144 148 149 137 140 142 141 143 145 146 148 149 152 157 159 160 165 166 167 164 166 163 163 168 170 173 176 193 201 224 220 228 250 288 289 286 291 290 287 291 295
212 231 231 229 228 236 182 228 234 244 247 229 80 250 247 197 241 246 249 251 252 254 257 261 262 261 255 261 266 277 148 201 204 218 226 215 223 207 191 181 171 164 159 148 140 134 146 151 156 143 144 144 141 144 148 151 149 153 161 159 161 162 162 156 158 153 154 161 162 164 165 163 177 197 203 207 226 230 265 283 283 288 294 295 294 294 287
230 241 236 241 217 244 193 215 231 242 246 156 156 252 236 226 242 240 246 250 250 250 250 254 255 243 246 248 256 250 172 186 198 191 199 187 188 192 169 171 157 139 128 126 143 156 165 165 148 150 148 149 156 150 153 149 153 158 161 158 148 142 140 144 146 147 153 157 159 157 151 158 187 203 193 209 207 343 314 285 297 302 304 301 297 289 289
225 224 241 246 244 201 176 213 226 208 129 155 210 230 221 228 237 236 238 245 247 248 251 244 240 233 234 234 247 208 167 143 197 208 217 213 179 172 170 161 137 142 155 159 165 167 156 138 142 145 145 144 152 153 148 153 159 153 138 130 132 135 137 138 140 145 145 156 158 150 151 169 185 188 182 197 198 24 295 306 306 304 301 292 296 303 301
219 226 231 236 244 217 201 222 218 146 148 203 224 227 230 244 243 239 231 238 243 245 237 234 232 239 239 233 234 219 196 198 187 175 165 155 145 119 144 148 149 146 149 143 131 133 140 144 149 155 158 166 153 142 148 157 143 120 120 127 127 130 138 135 134 138 142 148 156 145 159 175 181 166 157 177 137 80 352 330 315 298 302 311 314 307 303
234 232 240 232 236 123 190 222 216 180 206 229 226 243 237 238 242 243 244 238 242 240 240 230 234 235 238 236 229 223 207 195 180 177 175 173 169 161 154 164 175 149 151 157 160 148 141 137 142 156 164 162 143 134 141 123 116 120 123 124 128 131 129 129 134 142 145 153 149 142 167 181 163 152 167 162 150 110 34 341 319 320 326 324 319 313 306
219 217 211 217 220 219 197 197 214 197 217 222 229 235 245 233 236 236 243 241 242 242 241 239 235 235 241 245 242 230 220 205 177 176 177 157 144 160 178 171 166 161 145 141 124 129 140 149 155 159 166 153 150 154 130 120 120 119 124 128 131 128 130 135 138 144 151 151 136 142 168 173 151 142 132 143 119 83 34 354 336 330 331 325 319 310 308
205 220 218 221 221 223 206 205 222 221 222 225 234 239 242 245 239 237 245 248 244 239 240 243 245 248 237 242 234 220 221 192 181 178 180 172 170 169 169 175 168 168 153 152 146 146 151 143 131 144 132 150 156 142 132 131 137 137 136 135 135 134 138 142 144 148 151 142 133 143 169 169 150 149 159 124 98 65 45 352 327 323 318 319 306 305 311
231 237 226 235 228 229 228 212 221 228 231 228 232 240 248 245 250 244 244 244 246 248 238 239 237 238 241 239 238 234 226 210 184 166 160 161 152 153 153 157 171 166 139 129 135 135 140 147 149 140 155 149 154 146 138 145 147 143 140 136 134 137 139 141 145 150 137 125 128 145 174 153 132 137 140 118 83 62 31 329 315 311 311 299 296 313 310
259 254 192 235 235 231 224 221 225 229 234 240 233 235 238 246 247 251 250 251 248 242 205 212 224 235 241 244 245 241 232 215 194 187 185 174 169 169 173 169 156 156 149 147 152 152 151 161 149 150 146 153 128 138 149 151 148 142 137 133 130 138 139 139 146 150 137 138 142 153 164 148 138 146 160 122 95 81 290 295 304 304 297 304 317 316 311
259 273 275 276 269 257 253 243 239 238 234 237 233 233 232 236 241 244 251 254 257 256 242 215 234 246 249 249 246 239 228 219 201 195 186 172 166 181 161 160 165 150 159 161 161 156 152 156 152 142 137 132 137 134 140 143 139 138 132 137 140 145 144 144 147 146 131 132 142 146 149 153 149 159 160 140 116 154 230 286 292 300 309 317 318 316 313
287 294 297 295 295 291 280 269 238 227 245 242 239 239 241 243 246 247 249 246 252 253 254 252 249 249 252 251 249 244 233 228 215 205 192 173 169 157 169 174 169 174 170 162 161 157 152 150 145 142 135 134 141 146 142 139 146 139 131 127 124 134 141 139 133 131 127 142 149 141 144 135 146 173 183 151 141 206 240 235 260 289 304 310 314 312 313
268 260 266 261 276 270 278 277 280 289 305 306 300 293 280 267 268 266 261 259 255 250 249 253 254 254 253 253 250 240 236 232 225 195 187 182 165 176 175 160 178 162 169 153 158 154 151 154 152 145 138 137 138 140 140 147 144 130 131 132 133 142 151 140 132 133 132 137 142 144 134 125 137 173 198 193 203 219 261 287 306 314 314 313 318 320 314
259 269 268 263 267 281 293 309 312 325 332 322 310 298 293 285 275 274 276 280 281 275 268 255 257 258 260 262 262 254 246 240 221 202 180 171 178 179 164 158 171 174 174 166 157 153 159 157 147 137 135 140 138 140 147 152 146 133 135 136 135 144 149 146 146 136 137 137 144 139 135 137 151 135 63 24 257 240 246 279 307 313 325 329 331 329 329
270 277 289 309 283 272 283 278 280 283 281 288 287 287 288 285 280 290 299 285 284 293 296 290 271 257 258 261 259 259 252 246 217 202 198 187 176 159 163 172 171 163 163 171 173 171 157 152 144 139 134 138 140 144 150 147 144 142 147 142 147 156 149 142 138 133 129 128 134 132 127 129 143 132 106 113 172 203 201 323 316 314 326 338 343 347 344
273 280 283 285 287 285 276 273 276 282 281 274 275 279 277 276 279 279 276 276 270 271 274 277 276 270 259 255 255 250 250 244 217 203 187 190 184 172 179 174 169 172 180 182 163 141 146 144 141 139 134 139 145 149 145 143 147 146 154 140 137 142 143 140 133 129 129 130 127 122 119 112 103 78 67 37 8 347 206 218 290 293 343 356 356 356 354
296 306 307 300 293 290 293 292 283 281 279 278 279 277 279 279 280 281 278 276 277 274 269 268 270 267 261 254 249 247 239 233 211 188 176 175 175 183 180 188 191 189 148 126 137 149 146 146 143 140 136 143 148 144 139 142 146 141 143 138 136 146 151 148 138 136 131 130 127 119 113 109 107 95 84 87 65 330 336 338 342 339 352 1 0 356 354
289 295 301 297 291 288 287 284 288 292 291 292 288 286 285 284 281 277 276 274 272 273 272 270 266 267 267 250 242 234 228 227 185 185 191 188 186 193 196 196 158 147 135 148 148 145 140 136 139 136 134 141 142 142 140 139 136 133 134 128 120 104 116 127 125 128 127 127 125 119 121 121 115 105 106 106 115 41 345 326 315 314 312 328 342 354 354
279 292 307 301 301 305 308 312 309 309 303 302 300 297 296 294 291 288 283 281 275 267 263 259 262 265 264 250 231 236 224 201 195 202 197 202 206 204 201 185 160 154 154 141 141 142 146 145 145 136 135 141 147 146 138 135 130 134 136 133 130 137 137 121 116 118 120 126 126 123 128 123 115 110 113 133 149 169 228 254 270 290 294 318 313 315 352
358 345 328 313 302 300 303 306 305 301 297 294 294 294 295 293 289 286 283 282 282 280 274 270 263 259 258 261 244 235 223 213 212 208 209 213 212 199 170 156 157 152 145 140 149 154 151 148 145 137 142 143 140 137 139 135 138 143 144 139 135 140 141 136 123 119 122 121 121 125 123 118 120 118 127 142 159 178 210 235 257 266 300 317 331 335 352
330 326 318 308 307 311 313 311 311 311 306 303 299 294 289 286 286 284 285 284 282 279 276 276 274 269 264 261 250 234 224 218 218 219 217 216 174 142 150 145 134 121 120 142 164 167 160 152 143 142 145 149 139 137 138 137 132 134 130 134 134 138 138 134 123 125 127 128 127 123 118 119 114 119 131 141 159 177 205 251 267 289 319 333 344 347 343
313 308 303 299 305 328 331 313 306 300 299 300 303 301 295 285 281 283 284 286 287 285 284 280 278 275 271 264 254 237 230 228 225 217 197 168 152 152 147 146 148 170 177 179 170 166 160 147 133 132 140 146 147 144 140 132 137 133 121 119 111 129 135 137 134 133 132 126 128 125 117 116 119 129 137 141 148 173 189 217 238 298 298 324 343 339 329
312 309 314 326 354 334 318 314 310 303 300 302 303 297 296 299 297 291 288 286 282 282 282 281 278 274 269 264 254 245 233 221 184 172 159 152 158 161 164 168 176 178 178 169 144 112 129 126 116 118 130 135 139 140 137 139 139 137 135 138 133 135 137 136 124 125 120 120 123 120 125 129 130 131 131 142 160 169 187 186 214 321 340 351 331 333 325
342 337 331 336 343 333 322 312 312 308 308 305 297 288 288 287 284 281 279 279 279 276 275 273 272 271 273 269 249 218 192 173 166 162 162 168 172 174 178 169 169 158 157 157 157 152 146 144 140 140 138 140 140 139 144 144 143 139 140 138 135 136 138 138 134 126 114 113 114 123 129 122 126 127 130 140 152 165 158 133 156 329 339 307 298 311 304
302 283 281 294 301 303 305 303 306 304 300 296 291 289 288 285 283 283 280 279 277 274 270 271 276 278 270 235 209 189 162 144 160 183 180 178 174 170 167 155 123 142 146 147 150 160 146 121 129 141 140 136 138 138 143 142 134 129 134 133 134 138 135 136 134 126 123 115 120 123 120 119 120 123 133 142 151 154 128 129 122 337 318 301 304 312 316
290 284 284 284 285 280 278 281 290 295 297 295 295 291 284 282 283 282 281 282 281 281 282 281 277 269 244 214 198 190 183 194 200 185 154 155 137 143 156 144 132 127 133 151 153 141 110 115 120 129 139 139 131 132 139 139 133 132 130 124 125 124 127 130 134 130 125 128 132 134 126 122 117 122 124 134 142 135 135 139 124 33 336 323 321 321 325
303 294 291 291 285 280 276 274 274 275 280 283 283 283 287 285 283 283 283 281 278 275 275 275 274 252 230 213 200 195 205 207 165 133 141 131 138 150 146 145 144 142 139 133 130 118 127 124 123 124 124 124 128 131 129 130 123 122 120 122 118 118 120 117 112 102 109 125 133 121 117 116 118 123 130 137 131 135 135 132 136 52 16 334 329 334 326
312 304 298 293 292 291 289 285 279 275 273 275 278 282 283 283 281 278 277 274 275 275 281 286 266 230 225 218 214 177 151 160 155 149 148 146 149 146 145 144 146 147 141 121 139 130 129 132 121 113 115 118 124 131 135 139 132 129 127 124 126 127 125 122 122 121 124 118 115 116 114 120 122 124 134 144 138 143 138 131 133 50 355 344 343 335 333
316 303 296 289 292 292 285 275 274 277 276 273 270 264 264 271 277 281 284 282 282 283 278 260 245 226 146 98 109 129 127 120 129 133 138 143 146 140 144 149 153 148 137 132 129 130 129 133 126 117 115 117 125 134 146 142 129 131 134 134 129 127 122 121 124 126 125 123 119 119 130 136 134 135 140 137 142 140 133 138 132 101 40 350 338 333 328
314 307 292 294 293 288 284 281 273 261 257 263 270 274 283 295 298 295 286 282 293 296 143 107 112 106 120 122 111 92 111 125 128 134 133 131 137 138 139 143 144 149 142 138 141 139 141 139 126 122 117 120 128 136 147 148 149 137 126 127 129 121 122 126 132 127 119 120 123 129 131 128 129 131 138 146 145 141 143 141 146 148 38 339 340 336 331
314 317 314 312 302 299 299 298 298 298 297 302 309 309 311 309 304 300 293 298 326 338 98 132 133 137 131 126 108 97 128 132 131 122 121 128 131 125 116 80 81 114 129 127 123 122 128 127 122 119 123 126 129 138 146 152 148 133 134 130 129 123 121 120 119 119 123 126 125 125 125 132 135 133 136 141 144 149 147 159 174 164 163 262 294 310 312
316 313 315 314 309 309 308 311 311 311 316 316 314 313 312 308 304 302 308 326 344 27 46 111 122 116 128 126 124 118 127 130 133 134 134 132 136 141 134 122 128 117 132 128 130 129 125 129 125 124 121 129 132 138 141 151 146 134 128 131 129 132 129 130 121 124 136 142 141 146 143 141 137 141 145 145 149 145 158 168 161 165 157 287 312 312 301
316 316 311 313 313 311 309 308 307 309 313 314 310 311 309 311 311 314 335 358 14 38 52 61 93 113 115 115 115 120 123 129 130 135 142 147 150 139 116 102 131 127 117 112 120 126 122 116 111 118 129 133 133 139 136 143 137 129 131 138 132 127 123 124 122 124 116 119 123 118 128 131 135 138 144 144 145 163 158 151 139 131 112 287 306 309 315
321 321 319 315 313 313 309 306 304 307 310 310 313 313 313 314 318 330 354 17 32 55 74 87 95 99 113 120 122 119 119 123 120 117 90 52 70 130 123 130 130 130 129 126 124 123 125 126 127 132 135 133 138 139 133 135 137 132 128 125 124 118 116 123 123 123 126 126 127 130 130 140 148 148 150 148 153 159 155 157 143 125 247 289 318 311 303
318 317 317 315 310 308 308 303 303 306 308 310 317 319 317 321 332 348 23 49 58 60 71 78 88 108 122 126 124 123 128 125 114 117 105 98 65 54 33 111 133 137 133 122 119 114 118 118 120 122 119 125 131 139 133 128 132 127 123 125 126 124 122 118 122 127 129 137 137 146 150 144 147 149 147 151 158 155 169 158 146 163 266 291 299 295 292
317 320 318 315 312 309 308 308 306 304 306 310 316 324 335 334 344 5 27 58 67 76 80 90 100 108 118 121 95 71 87 97 118 127 123 108 101 102 91 103 119 127 121 119 107 110 114 120 128 129 133 135 134 137 128 127 130 125 127 126 128 126 127 132 133 137 130 130 134 138 143 148 149 148 155 147 154 164 167 166 169 188 245 280 283 283 287
317 318 319 320 320 317 309 307 307 306 310 317 324 342 350 348 0 14 28 44 60 63 78 93 98 91 99 114 114 103 88 77 60 32 52 127 142 141 146 138 127 120 125 123 98 104 105 123 131 131 133 133 136 133 118 120 115 123 118 120 121 124 122 124 126 130 145 148 147 150 153 147 149 153 158 152 163 171 169 166 200 250 238 265 275 278 288
320 318 318 321 320 318 321 321 323 334 345 354 2 359 356 358 15 33 36 59 73 77 77 78 78 85 77 59 76 120 110 87 64 47 73 83 94 105 104 103 107 120 126 118 117 118 133 130 131 132 133 135 135 121 119 119 119 120 122 120 126 123 123 126 132 135 140 141 132 120 110 120 139 135 133 151 173 186 166 169 218 239 236 242 261 250 253
318 314 314 316 315 317 323 326 333 348 -0 2 0 5 6 7 22 36 50 71 77 75 76 83 83 83 66 62 51 62 71 91 103 88 86 104 109 114 118 133 119 110 113 104 96 97 115 124 129 130 129 132 127 114 119 117 118 122 122 125 123 122 127 133 138 141 144 137 138 144 152 156 157 167 171 187 184 182 197 221 234 236 231 235 243 249 264
315 313 308 309 312 321 336 339 343 343 354 355 357 5 8 13 25 39 46 68 79 70 68 60 52 43 50 51 54 40 36 10 39 123 129 127 125 119 114 109 113 115 108 104 116 120 126 127 125 123 123 128 119 117 114 116 116 117 121 123 121 128 130 134 138 145 143 143 150 146 147 152 154 167 180 182 173 202 176 198 224 235 238 237 255 252 247
318 312 313 326 330 337 340 340 352 355 345 358 13 4 9 35 57 38 41 46 55 69 74 63 54 43 46 39 44 54 53 76 92 104 111 101 97 104 112 114 115 105 100 107 115 120 122 119 120 118 128 114 113 117 106 117 122 119 114 121 118 115 109 107 109 114 119 124 142 151 150 163 158 159 167 181 177 187 203 223 239 240 240 249 243 255 264
324 314 318 335 329 331 336 341 345 355 4 7 12 23 18 38 53 61 51 60 74 76 77 74 57 51 47 55 61 68 88 93 91 96 103 100 100 92 92 104 108 111 108 100 107 118 127 126 127 120 123 120 110 114 121 118 116 114 117 125 128 130 129 139 153 153 167 166 150 156 155 169 171 167 178 174 176 202 212 222 228 233 222 234 244 257 262
320 313 331 343 336 336 339 356 355 6 7 13 8 18 27 32 52 71 64 49 67 82 82 90 80 53 54 70 79 89 99 110 107 97 98 104 105 108 93 92 103 101 100 103 109 110 111 107 107 117 122 110 105 102 96 105 102 108 110 107 110 115 131 145 148 154 152 162 170 168 166 188 178 173 186 179 199 212 222 229 231 237 237 241 238 258 269